Home   Weather   Metairie   Past weeks

Flag for USA Past Weather in Metairie, Louisiana, USA — Yesterday and Last 2 Weeks

Now
66 °F

Passing clouds.


Feels Like: 66 °F
Forecast: 50 / 69 °F
Wind: 10 mph from South

Location: New Orleans International Airport

Current Time: Jan 24, 2017 at 5:29:28 pm

Latest Report: Jan 24, 2017 at 4:53 pm


Visibility: 10 mi

Pressure: 29.92 "Hg

Humidity: 61%

Dew Point: 52 °F

Location of MetairieLocation

Past Weather in Metairie — Graph

°F

Metairie Temperature Yesterday

Maximum temperature yesterday: 67 °F (at 2:53 pm)
Minimum temperature yesterday: 53 °F (at 10:53 pm)
Average temperature yesterday: 59 °F

High & Low Weather Summary for the Past Weeks

 TemperatureHumidityPressure
High80 °F (Jan 20, 1:53 pm)100% (Jan 11, 3:53 am)30.45 "Hg (Jan 11, 3:53 am)
Low48 °F (Jan 24, 3:53 am)35% (Jan 22, 12:53 pm)29.44 "Hg (Jan 22, 1:53 pm)
Average66 °F86%30.04 "Hg
* Reported Jan 9 3:53 pm — Jan 24 3:53 pm, Metairie, Weather by CustomWeather, © 2017

Note: Actual official high and low records may vary slightly from our data, if they occured in-between our weather recording intervals... More about our weather records

Advertising

Metairie Weather History for the Previous 24 Hours

Scroll right to see more
 ConditionsComfort  
Time TempWeatherWind HumidityBarometerVisibility
3:53 pm
Tue, Jan 24
67 °FPassing clouds.10 mph53%29.91 "Hg10 mi
2:53 pm67 °FPassing clouds.10 mph57%29.92 "Hg10 mi
1:53 pm68 °FPassing clouds.12 mph45%29.91 "Hg10 mi
12:53 pm67 °FPassing clouds.9 mph49%29.92 "Hg10 mi
11:53 am65 °FPassing clouds.8 mph56%29.96 "Hg10 mi
10:53 am62 °FSunny.8 mph65%29.98 "Hg10 mi
9:53 am59 °FPassing clouds.7 mph64%29.99 "Hg10 mi
8:53 am55 °FPassing clouds.7 mph74%29.97 "Hg10 mi
7:53 am52 °FPassing clouds.6 mph86%29.96 "Hg10 mi
6:53 am49 °FClear.3 mph90%29.94 "Hg10 mi
5:53 am48 °FClear.No wind89%29.93 "Hg10 mi
4:53 am48 °FClear.No wind93%29.92 "Hg10 mi
3:53 am48 °FClear.No wind93%29.91 "Hg10 mi
2:53 am50 °FClear.No wind89%29.91 "Hg10 mi
1:53 am50 °FClear.No wind89%29.91 "Hg10 mi
12:53 am49 °FClear.3 mph86%29.90 "Hg10 mi
11:53 pm
Mon, Jan 23
53 °FClear.No wind74%29.90 "Hg10 mi
10:53 pm53 °FClear.5 mph74%29.90 "Hg10 mi
9:53 pm54 °FClear.No wind77%29.90 "Hg10 mi
8:53 pm56 °FClear.5 mph70%29.89 "Hg10 mi
7:53 pm56 °FClear.5 mph70%29.90 "Hg10 mi
7:08 pm60 °FPassing clouds.6 mph65%29.88 "Hg10 mi
6:53 pm60 °FClear.6 mph62%29.89 "Hg10 mi
5:53 pm62 °FPassing clouds.8 mph56%29.87 "Hg10 mi
Weather by CustomWeather, © 2017

See weather overviewHow to use our weather pages